FW6198 Weather Reports


Display with metric or nautical units.
time (UTC)temp
F
wind
direction
speed
MPH
gust
MPH
rain 1hr
in
rain 24hr
in
rain mn
in
humidity
%
barometer
mb
20200811065339 67 120 0.0 1.0 0.00 0.26 0.00 97 1016.5
20200811064326 67 120 0.0 2.0 0.00 0.26 0.00 97 1016.5
20200811063314 67 120 0.0 1.0 0.00 0.26 0.00 97 1016.4
20200811062336 67 120 0.0 1.0 0.00 0.26 0.00 97 1016.4
20200811061332 67 120 0.0 1.0 0.00 0.26 0.00 97 1016.3
20200811060320 67 121 0.0 0.0 0.00 0.26 0.00 97 1016.3
20200811055340 67 120 0.0 1.0 0.00 0.26 0.00 97 1016.3
20200811054317 67 120 0.0 0.0 0.00 0.26 0.00 97 1016.5
20200811053325 68 120 0.0 1.0 0.00 0.26 0.00 97 1016.5
20200811052326 67 120 0.0 1.0 0.00 0.26 0.00 97 1016.4
20200811051318 68 120 0.0 1.0 0.00 0.26 0.00 97 1016.6
20200811050326 68 120 0.0 1.0 0.00 0.26 0.00 97 1016.4
20200811045332 68 120 0.0 1.0 0.00 0.26 0.00 97 1016.6
20200811044323 68 120 1.0 2.0 0.00 0.26 0.00 97 1016.5
20200811043331 68 120 0.0 2.0 0.00 0.26 0.00 96 1016.5
20200811042339 68 121 1.0 2.0 0.00 0.26 0.00 96 1016.5
20200811041313 69 350 1.0 1.0 0.00 0.26 0.00 96 1016.5
20200811040322 69 350 0.0 0.0 0.00 0.26 0.00 96 1016.6
20200811035338 68 350 0.0 0.0 0.00 0.26 0.26 96 1016.5
20200811034314 69 350 0.0 0.0 0.00 0.26 0.26 96 1016.4
20200811033325 69 350 0.0 0.0 0.00 0.26 0.26 95 1016.5
20200811032322 69 350 0.0 0.0 0.00 0.26 0.26 95 1016.4
20200811031326 70 350 0.0 0.0 0.00 0.26 0.26 94 1016.6
20200811030336 70 350 0.0 0.0 0.00 0.26 0.26 94 1016.6
20200811025332 70 350 0.0 0.0 0.00 0.26 0.26 94 1016.7
20200811024341 70 350 0.0 0.0 0.00 0.26 0.26 94 1016.9
20200811023328 70 350 0.0 0.0 0.00 0.26 0.26 94 1017.0
20200811022331 70 350 0.0 0.0 0.00 0.26 0.26 94 1016.9
20200811021323 70 350 0.0 0.0 0.00 0.26 0.26 94 1016.8
20200811020331 71 350 0.0 0.0 0.00 0.26 0.26 94 1016.7
20200811015336 71 350 0.0 0.0 0.00 0.26 0.26 94 1016.9
20200811014313 71 348 0.0 0.0 0.01 0.26 0.26 94 1016.9
20200811013322 71 348 0.0 0.0 0.01 0.26 0.26 93 1016.9
20200811012338 71 43 0.0 1.0 0.02 0.26 0.26 93 1016.5
20200811011316 71 22 1.0 3.0 0.04 0.26 0.26 93 1016.6
20200811010323 71 204 0.0 2.0 0.04 0.26 0.26 93 1016.6
20200811005322 71 70 0.0 2.0 0.04 0.26 0.26 93 1017.0
20200811004320 71 84 1.0 4.0 0.03 0.25 0.25 93 1016.9
20200811003325 71 135 1.0 2.0 0.03 0.25 0.25 93 1016.8
20200811002327 71 136 0.0 2.0 0.02 0.24 0.24 92 1016.7
20200811001322 71 140 2.0 3.0 0.00 0.22 0.22 92 1016.6
20200811000329 71 132 1.0 2.0 0.00 0.22 0.22 92 1016.8
20200810235337 72 271 1.0 3.0 0.00 0.22 0.22 92 1016.9
20200810234318 72 15 0.0 1.0 0.00 0.22 0.22 92 1016.9
20200810233331 72 27 0.0 1.0 0.00 0.22 0.22 91 1016.9
20200810232331 72 248 1.0 3.0 0.00 0.22 0.22 91 1017.0
20200810231336 72 136 1.0 3.0 0.00 0.22 0.22 90 1017.1
20200810230334 73 303 0.0 2.0 0.00 0.22 0.22 89 1017.2
20200810225332 73 155 0.0 2.0 0.00 0.22 0.22 88 1017.1
20200810224329 74 117 0.0 2.0 0.00 0.22 0.22 86 1017.5
20200810223317 74 175 0.0 2.0 0.20 0.22 0.22 85 1017.7
20200810222322 75 312 0.0 1.0 0.22 0.22 0.22 83 1017.8
20200810221318 76 312 0.0 2.0 0.22 0.22 0.22 80 1017.9
20200810220331 78 312 1.0 3.0 0.22 0.22 0.22 77 1017.7
20200810215321 80 276 1.0 2.0 0.22 0.22 0.22 75 1017.7
20200810214321 83 29 1.0 4.0 0.22 0.22 0.22 75 1017.0
20200810213333 86 317 0.0 2.0 0.02 0.02 0.02 70 1016.1
20200810212333 88 123 0.0 2.0 0.00 0.00 0.00 64 1015.6
20200810211343 88 123 0.0 2.0 0.00 0.00 0.00 59 1015.5
20200810210336 89 123 1.0 2.0 0.00 0.00 0.00 57 1015.6
20200810205315 89 126 1.0 4.0 0.00 0.00 0.00 54 1015.5
20200810204316 90 105 1.0 5.0 0.00 0.00 0.00 54 1015.7
20200810203330 90 316 1.0 4.0 0.00 0.00 0.00 55 1015.9
20200810202331 90 155 1.0 3.0 0.00 0.00 0.00 53 1016.0
20200810201326 89 223 1.0 4.0 0.00 0.00 0.00 55 1015.9
20200810200318 89 157 2.0 7.0 0.00 0.00 0.00 56 1016.0
20200810195318 88 161 1.0 3.0 0.00 0.00 0.00 56 1016.2
20200810194325 89 127 1.0 6.0 0.00 0.00 0.00 56 1016.3
20200810193334 89 136 3.0 6.0 0.00 0.00 0.00 56 1016.5
20200810192332 88 127 1.0 6.0 0.00 0.00 0.00 57 1016.6
20200810191339 88 132 2.0 5.0 0.00 0.00 0.00 57 1016.6
20200810190319 89 284 0.0 3.0 0.00 0.00 0.00 57 1016.7
20200810185321 89 215 1.0 3.0 0.00 0.00 0.00 56 1016.8
20200810184321 90 137 1.0 5.0 0.00 0.00 0.00 56 1017.1
20200810183330 89 208 1.0 4.0 0.00 0.00 0.00 55 1017.0
20200810182340 90 136 2.0 5.0 0.00 0.00 0.00 54 1017.1
20200810181320 90 319 3.0 9.0 0.00 0.00 0.00 57 1017.2
20200810180332 90 257 2.0 4.0 0.00 0.00 0.00 56 1017.3
20200810175333 89 138 1.0 5.0 0.00 0.00 0.00 56 1017.4
20200810174341 90 205 2.0 4.0 0.00 0.00 0.00 55 1017.4
20200810173326 89 342 2.0 4.0 0.00 0.00 0.00 56 1017.5
20200810172326 89 321 1.0 3.0 0.00 0.00 0.00 57 1017.6
20200810171320 89 298 3.0 5.0 0.00 0.00 0.00 56 1017.9
20200810170333 88 225 2.0 5.0 0.00 0.00 0.00 61 1017.9
20200810165323 88 261 1.0 4.0 0.00 0.00 0.00 59 1018.1
20200810164323 89 301 1.0 3.0 0.00 0.00 0.00 56 1018.0
20200810163315 89 161 1.0 3.0 0.00 0.00 0.00 57 1018.0
20200810162315 88 24 1.0 4.0 0.00 0.00 0.00 60 1018.1
20200810161326 87 322 2.0 3.0 0.00 0.00 0.00 60 1018.3
20200810160337 87 149 1.0 4.0 0.00 0.00 0.00 61 1018.5
20200810155335 86 283 1.0 4.0 0.00 0.00 0.00 63 1018.6
20200810154334 85 74 1.0 6.0 0.00 0.00 0.00 64 1018.6
20200810153325 84 273 1.0 3.0 0.00 0.00 0.00 68 1018.6
20200810152328 82 164 2.0 5.0 0.00 0.00 0.00 68 1018.7
20200810151323 81 165 1.0 3.0 0.00 0.00 0.00 71 1018.7
20200810150315 81 346 0.0 2.0 0.00 0.00 0.00 72 1018.7
20200810145343 80 285 0.0 3.0 0.00 0.00 0.00 72 1018.6
20200810144325 79 141 1.0 2.0 0.00 0.00 0.00 73 1018.6
20200810143319 79 128 2.0 4.0 0.00 0.00 0.00 75 1018.6
20200810142315 78 134 1.0 3.0 0.00 0.00 0.00 75 1018.6
20200810141345 77 140 1.0 4.0 0.00 0.00 0.00 77 1018.7
20200810140327 77 127 1.0 3.0 0.00 0.00 0.00 78 1018.8
20200810135337 76 132 1.0 3.0 0.00 0.00 0.00 78 1018.9
20200810134316 76 132 2.0 3.0 0.00 0.00 0.00 79 1018.8
20200810133327 75 162 0.0 3.0 0.00 0.00 0.00 81 1018.8
20200810132331 75 144 2.0 3.0 0.00 0.00 0.00 81 1018.9
20200810131325 74 152 0.0 3.0 0.00 0.00 0.00 83 1018.9
20200810130333 73 153 2.0 3.0 0.00 0.00 0.00 88 1018.7
20200810125339 71 155 1.0 2.0 0.00 0.00 0.00 92 1018.8
20200810124322 70 360 0.0 1.0 0.00 0.00 0.00 94 1018.8
20200810123333 69 355 0.0 1.0 0.00 0.00 0.00 95 1019.0
20200810122333 68 355 0.0 0.0 0.00 0.00 0.00 96 1019.2
20200810121314 67 355 0.0 0.0 0.00 0.00 0.00 95 1019.1
20200810120328 66 355 0.0 0.0 0.00 0.00 0.00 95 1019.1
20200810115338 66 355 0.0 0.0 0.00 0.00 0.00 95 1019.1
20200810114321 66 355 0.0 0.0 0.00 0.00 0.00 95 1019.0
20200810113330 65 355 0.0 0.0 0.00 0.00 0.00 94 1019.0
20200810112332 65 355 0.0 0.0 0.00 0.00 0.00 94 1019.1
20200810111342 65 355 0.0 0.0 0.00 0.00 0.00 94 1018.8
20200810110326 64 355 0.0 0.0 0.00 0.00 0.00 93 1018.8
20200810105329 64 355 0.0 0.0 0.00 0.00 0.00 93 1018.9
20200810104332 64 355 0.0 0.0 0.00 0.00 0.00 93 1018.9
20200810103323 64 355 0.0 0.0 0.00 0.00 0.00 93 1018.9
20200810102330 64 355 0.0 0.0 0.00 0.00 0.00 93 1018.8
20200810101326 64 355 0.0 0.0 0.00 0.00 0.00 92 1018.7
20200810100316 65 355 0.0 0.0 0.00 0.00 0.00 93 1018.7
20200810095342 65 355 0.0 0.0 0.00 0.00 0.00 92 1018.6
20200810094321 65 355 0.0 0.0 0.00 0.00 0.00 92 1018.7
20200810093330 65 355 0.0 0.0 0.00 0.00 0.00 92 1018.5
20200810092330 65 355 0.0 0.0 0.00 0.00 0.00 92 1018.6
20200810091341 65 355 0.0 0.0 0.00 0.00 0.00 92 1018.6
20200810090325 65 355 0.0 0.0 0.00 0.00 0.00 92 1018.6
20200810085334 66 355 0.0 0.0 0.00 0.00 0.00 92 1018.4
20200810084321 66 355 0.0 0.0 0.00 0.00 0.00 92 1018.6
20200810083331 66 355 0.0 0.0 0.00 0.00 0.00 92 1018.6
20200810082336 66 355 0.0 0.0 0.00 0.00 0.00 92 1018.6
20200810081332 66 355 0.0 0.0 0.00 0.00 0.00 92 1018.5
20200810080320 66 355 0.0 0.0 0.00 0.00 0.00 92 1018.4
20200810075340 66 355 0.0 0.0 0.00 0.00 0.00 92 1018.5
20200810074317 66 355 0.0 0.0 0.00 0.00 0.00 92 1018.6
20200810073325 67 355 0.0 0.0 0.00 0.00 0.00 93 1018.4
20200810072315 67 355 0.0 0.0 0.00 0.00 0.00 93 1018.3
20200810071321 67 355 0.0 0.0 0.00 0.00 0.00 92 1018.4